Location: Belmont
(13.0833°N, 59.6000°W)
Time: 22:49:25
(UTC+00:00)

Cosmos 405 - Pass Details

Date: 17 September 2019
Orbit: 452 x 467 km, 81.3° (Epoch: 19 October)

Event Time Altitude Azimuth Distance (km) Brightness Sun altitude
Rises 22:33:55 0° 6° (N) 2,456 6.6 -9.5°
Reaches altitude 10° 22:36:06 10° 15° (NNE) 1,581 5.6 -10.0°
Maximum altitude 22:39:18 36° 83° (E) 731 3.4 -10.8°
Drops below altitude 10° 22:42:30 10° 152° (SSE) 1,577 5.3 -11.6°
Sets 22:44:39 0° 161° (SSE) 2,448 6.4 -12.1°
